COSMOS 2301

Satellite information

Favourite Embed

Satellite Type and Status

PAYLOADIN ORBIT

Key statistics

Satellite COSMOS 2301 at a glance.

Uptime

11269

Days in orbit

Revolutions

≈ 12.6

Per day

Orbit

LEO

Low Earth Orbit

Inclination

82.6

Latest

Satellite identification and parameters

Extended collection of information and parameters for COSMOS 2301.

Object identification

Identified? True

Debris? False

Object name: COSMOS 2301

International designator: 1994-086C

Object number (NORAD): 23443

Object ID (CCSDS): 23443

Country: COMMONWEALTH OF INDEPENDENT STATES (CIS)

Current information (Y/N): Y

RCS size: LARGE

Orbital parameters

Period: 114.085 minutes

Inclination: 82.5678 deg

SMA: 7791.934 km

Apoapsis: 1414.694 km

Periapsis: 1412.904 km

RAAN: 106.2295 deg

Eccentricy: 0.00011486

Argument of periapsis: 332.1563 deg

Mean anomaly: 81.1819 deg

Mean motion: 12.62219421 rev/day

Mean motion (dot): 0.00000052 rev/day2

B* drag term: 0.00023315727 1/REarth

Two-line elements (TLE)

Creation date: Nov. 1, 2025, 7:40 p.m.

Reference frame: TEME

Reference center: EARTH

Epoch: Nov. 1, 2025, 10:55 a.m. UTC

TLE line 0: 0 COSMOS 2301

TLE line 1: 1 23443U 94086C 25305.45491064 .00000052 00000-0 23316-3 0 9996

TLE line 2: 2 23443 82.5678 106.2295 0001149 332.1563 81.1819 12.62219421421170

Live tracking on map

Real-time ground track for satellite COSMOS 2301.

In-orbit conjunctions

There are no conjunctions computed for COSMOS 2301, at the moment. Check back to stay up to date, as we update our databases every day.

Go to all conjunctions

Associated space launch

Second generation store-dump military communications satellites

COSMOS 2301 was lifted into orbit during the mission ‘Tsiklon-3 | Strela-3 107 to 112’, on board a Tsiklon-3 space rocket.

The launch took place on Dec. 26, 1994, 10:26 p.m. from 32/2.

For more information about the launch, click the button.

Launch to space Tsiklon-3 | Strela-3 107 to 112
Tsiklon-3 | Strela-3 107 to 112

Agency: N/A

Status: Launch Successful

Launch date: Dec. 26, 1994, 10:26 p.m. UTC

Rocket: Tsiklon-3

Launch pad: 32/2

Location: Plesetsk Cosmodrome, Russian Federation

...

Latest news about this satellite

There are no fresh news available about this satellite. Check back as we update our databases every day.


Newsletter sign-up

Weekly statistics, charts and insights to help you stay on top of the space industry.